sat.trackr.live / text

‹ back to catalog

UNKNOWN

NORAD 82500

UNKNOWN UNKNOWN UNKNOWN

§ Identity

Operator
Country
Launch date
Launch site
Launch vehicle
Mass (kg)
RCS (m²)

External: N2YO · Heavens-Above

§ Orbital elements

Epoch: 2026-09-17T00:58:00.463296Z

Period
101.39 min
Inclination
70.9644°
Eccentricity
0.0119520
Mean motion
14.20285156 rev/d
Perigee alt
738.3 km
Apogee alt
910.5 km
Semi-major
7,202.5 km
B*
1.3313e-3
RAAN
133.8613°
Arg perigee
50.3009°
Mean anomaly
310.8580°
Rev number
65,844

§ Raw data

UNKNOWN1 82500U          26260.04028314  .00003014  00000+0  13313-2 0  99932 82500  70.9644 133.8613 0119520  50.3009 310.8580 14.20285156658443

JSON: /api/v1/satellites/82500 · /tle

For live sub-satellite position, see the globe view (requires WebGL).

§ Visibility from observer

Set your observer location to see the next 7 days of passes ≥ 10°. The values pass through the URL so the page stays shareable.

No JS? Fill the form by hand. The geolocation button needs JavaScript.